KA6YAK Weather Reports


Display with metric or nautical units.
time (UTC)temp
F
wind
direction
speed
MPH
gust
MPH
rain 1hr
in
rain 24hr
in
rain mn
in
humidity
%
barometer
mb
20260507212848 71 250 3.0 14.0 0.00 0.00 0.00 37 1013.3
20260507211845 72 328 9.0 19.0 0.00 0.00 0.00 35 1013.3
20260507210844 70 325 4.0 8.0 0.00 0.00 0.00 38 1013.3
20260507205844 71 323 2.0 14.0 0.00 0.00 0.00 35 1013.6
20260507204840 75 253 6.0 11.0 0.00 0.00 0.00 35 1013.6
20260507203839 73 201 4.0 8.0 0.00 0.00 0.00 39 1013.6
20260507202839 71 6 2.0 11.0 0.00 0.00 0.00 38 1014.1
20260507201837 73 204 3.0 4.0 0.00 0.00 0.00 37 1014.1
20260507200835 73 162 0.0 11.0 0.00 0.00 0.00 37 1013.6
20260507195836 72 48 1.0 7.0 0.00 0.00 0.00 36 1014.1
20260507195750 68 306 2.0 9.0 0.00 0.00 0.00 41 1014.1
20260507193831 69 9 3.0 11.0 0.00 0.00 0.00 39 1014.1
20260507192832 74 44 4.0 8.0 0.00 0.00 0.00 37 1014.1
20260507191827 73 75 0.0 7.0 0.00 0.00 0.00 38 1014.1
20260507190825 72 334 4.0 8.0 0.00 0.00 0.00 38 1014.1
20260507185825 72 24 3.0 8.0 0.00 0.00 0.00 38 1014.1
20260507184821 71 18 5.0 7.0 0.00 0.00 0.00 38 1013.6
20260507183821 70 140 2.0 6.0 0.00 0.00 0.00 40 1014.1
20260507182821 70 183 4.0 10.0 0.00 0.00 0.00 39 1014.1
20260507181817 69 224 5.0 10.0 0.00 0.00 0.00 41 1014.1
20260507181309 68 256 4.0 11.0 0.00 0.00 0.00 42 1014.4
20260507175816 68 264 4.0 7.0 0.00 0.00 0.00 43 1014.4
20260507175254 67 308 1.0 8.0 0.00 0.00 0.00 45 1014.4
20260507173811 65 243 2.0 7.0 0.00 0.00 0.00 45 1014.7
20260507172811 65 190 3.0 14.0 0.00 0.00 0.00 44 1014.7
20260507171808 67 264 9.0 14.0 0.00 0.00 0.00 46 1014.7
20260507170807 65 289 4.0 10.0 0.00 0.00 0.00 48 1014.7
20260507170243 64 268 3.0 15.0 0.00 0.00 0.00 48 1014.7
20260507164804 66 269 7.0 11.0 0.00 0.00 0.00 45 1014.7
20260507164243 65 232 3.0 14.0 0.00 0.00 0.00 45 1014.4
20260507162803 67 253 4.0 17.0 0.00 0.00 0.00 45 1014.4
20260507161759 64 233 11.0 26.0 0.00 0.00 0.00 49 1014.7
20260507160758 65 276 11.0 21.0 0.00 0.00 0.00 47 1014.7
20260507155758 64 208 7.0 13.0 0.00 0.00 0.00 48 1014.7
20260507154755 62 261 7.0 11.0 0.00 0.00 0.00 47 1014.7
20260507154231 62 255 7.0 9.0 0.00 0.00 0.00 49 1014.7
20260507152754 61 169 4.0 6.0 0.00 0.00 0.00 50 1014.7
20260507151751 61 147 4.0 8.0 0.00 0.00 0.00 51 1014.7
20260507150750 59 229 6.0 8.0 0.00 0.00 0.00 53 1014.7
20260507145750 58 31 7.0 9.0 0.00 0.00 0.00 53 1014.7
20260507144747 57 82 4.0 10.0 0.00 0.00 0.00 56 1014.7
20260507143746 57 111 2.0 4.0 0.00 0.00 0.00 55 1014.7
20260507143219 56 117 2.0 3.0 0.00 0.00 0.00 54 1014.1
20260507141742 57 109 0.0 6.0 0.00 0.00 0.00 52 1014.4
20260507140741 59 94 2.0 4.0 0.00 0.00 0.00 52 1014.4
20260507135740 60 100 2.0 6.0 0.00 0.00 0.00 53 1014.4
20260507134738 59 71 3.0 6.0 0.00 0.00 0.00 53 1014.1
20260507134216 56 24 1.0 10.0 0.00 0.00 0.00 57 1014.1
20260507132737 53 80 8.0 15.0 0.00 0.00 0.00 59 1013.6
20260507132215 53 216 4.0 10.0 0.00 0.00 0.00 56 1013.6
20260507130732 53 227 10.0 13.0 0.00 0.00 0.00 57 1013.6
20260507125903 53 120 5.0 17.0 0.00 0.00 0.00 56 1013.3
20260507124900 53 201 5.0 10.0 0.00 0.00 0.00 56 1013.3
20260507123855 53 222 4.0 13.0 0.00 0.00 0.00 57 1013.6
20260507122854 52 196 5.0 10.0 0.00 0.00 0.00 57 1013.3
20260507121849 53 227 2.0 8.0 0.00 0.00 0.00 57 1012.8
20260507120847 52 253 4.0 9.0 0.00 0.00 0.00 58 1013.3
20260507115845 52 176 5.0 10.0 0.00 0.00 0.00 60 1012.8
20260507114841 51 199 3.0 6.0 0.00 0.00 0.00 60 1013.3
20260507113837 51 185 5.0 7.0 0.00 0.00 0.00 60 1012.8
20260507113339 51 146 2.0 6.0 0.00 0.00 0.00 59 1013.3
20260507111835 51 156 4.0 7.0 0.00 0.00 0.00 60 1012.8
20260507110827 52 72 1.0 8.0 0.00 0.00 0.00 57 1013.3
20260507105827 53 222 4.0 13.0 0.00 0.00 0.00 56 1012.8
20260507104821 53 214 6.0 9.0 0.00 0.00 0.00 56 1012.8
20260507104322 53 197 6.0 8.0 0.00 0.00 0.00 57 1012.8
20260507103316 53 163 4.0 7.0 0.00 0.00 0.00 56 1012.8
20260507101814 54 149 6.0 10.0 0.00 0.00 0.00 56 1012.8
20260507100810 53 126 2.0 6.0 0.00 0.00 0.00 57 1013.3
20260507095807 54 103 3.0 8.0 0.00 0.00 0.00 54 1012.8
20260507095306 56 163 2.0 13.0 0.00 0.00 0.00 55 1012.8
20260507093759 53 188 6.0 9.0 0.00 0.00 0.00 57 1012.8
20260507092759 53 117 4.0 10.0 0.00 0.00 0.00 57 1012.8
20260507091753 53 193 2.0 4.0 0.00 0.00 0.00 57 1012.5
20260507091250 54 146 2.0 6.0 0.00 0.00 0.00 56 1012.8
20260507085749 55 126 4.0 9.0 0.00 0.00 0.00 56 1012.8
20260507085244 54 227 2.0 9.0 0.00 0.00 0.00 58 1012.5
20260507083741 55 132 2.0 4.0 0.00 0.00 0.00 58 1012.8
20260507083242 56 176 3.0 6.0 0.00 0.00 0.00 55 1012.8
20260507081736 56 265 4.0 7.0 0.00 0.00 0.00 56 1012.8
20260507080731 57 105 2.0 7.0 0.00 0.00 0.00 54 1012.5
20260507075731 58 124 2.0 9.0 0.00 0.00 0.00 53 1012.8
20260507074726 61 131 6.0 19.0 0.00 0.00 0.00 50 1012.8
20260507073723 59 218 8.0 18.0 0.00 0.00 0.00 52 1012.8
20260507072720 58 209 4.0 9.0 0.00 0.00 0.00 54 1012.5
20260507071715 58 255 6.0 16.0 0.00 0.00 0.00 55 1012.8
20260507070713 57 235 5.0 15.0 0.00 0.00 0.00 56 1012.5
20260507065712 58 255 7.0 8.0 0.00 0.00 0.00 55 1012.8
20260507064709 57 173 4.0 4.0 0.00 0.00 0.00 55 1012.8
20260507063706 57 110 1.0 6.0 0.00 0.00 0.00 54 1012.8
20260507062705 58 74 3.0 9.0 0.00 0.00 0.00 54 1012.8
20260507062159 59 36 6.0 9.0 0.00 0.00 0.00 54 1012.8
20260507060658 60 243 8.0 10.0 0.00 0.00 0.00 51 1012.8
20260507055655 60 209 6.0 22.0 0.00 0.00 0.00 49 1012.8
20260507054649 61 256 15.0 31.0 0.00 0.00 0.00 48 1012.8
20260507053647 61 187 12.0 33.0 0.00 0.00 0.00 48 1012.8
20260507052644 62 296 17.0 41.0 0.00 0.00 0.00 47 1012.8
20260507051641 62 205 11.0 30.0 0.00 0.00 0.00 48 1012.8
20260507050650 62 223 8.0 33.0 0.00 0.00 0.00 48 1012.5
20260507045637 61 261 20.0 31.0 0.00 0.00 0.00 52 1012.5
20260507044632 59 236 9.0 21.0 0.00 0.00 0.00 55 1012.5
20260507043629 58 260 13.0 15.0 0.00 0.00 0.00 57 1012.8
20260507043124 58 248 8.0 14.0 0.00 0.00 0.00 55 1012.8
20260507041623 59 236 8.0 15.0 0.00 0.00 0.00 54 1012.5
20260507041118 59 277 5.0 10.0 0.00 0.00 0.00 54 1012.5
20260507035618 60 268 8.0 11.0 0.00 0.00 0.00 52 1012.5
20260507035112 60 226 8.0 14.0 0.00 0.00 0.00 52 1012.2
20260507033611 61 239 9.0 15.0 0.00 0.00 0.00 51 1012.2
20260507032611 62 223 10.0 19.0 0.00 0.00 0.00 49 1012.2
20260507031608 62 179 9.0 17.0 0.00 0.00 0.00 48 1011.7
20260507030606 62 230 9.0 17.0 0.00 0.00 0.00 47 1011.7
20260507025607 63 263 16.0 19.0 0.00 0.00 0.00 46 1011.7
20260507024603 63 244 12.0 22.0 0.00 0.00 0.00 45 1011.7
20260507023602 64 190 9.0 18.0 0.00 0.00 0.00 44 1011.7
20260507022601 64 241 8.0 11.0 0.00 0.00 0.00 43 1011.7
20260507021558 64 242 10.0 21.0 0.00 0.00 0.00 42 1011.7
20260507020557 64 256 6.0 9.0 0.00 0.00 0.00 42 1011.7
20260507015557 65 239 3.0 11.0 0.00 0.00 0.00 41 1011.7
20260507014554 66 149 4.0 21.0 0.00 0.00 0.00 40 1012.2
20260507013553 66 244 11.0 21.0 0.00 0.00 0.00 40 1011.7
20260507012552 68 276 7.0 17.0 0.00 0.00 0.00 41 1011.7
20260507011550 71 283 8.0 16.0 0.00 0.00 0.00 39 1012.2
20260507011528 72 268 10.0 23.0 0.00 0.00 0.00 37 1011.7
20260507005548 73 265 8.0 19.0 0.00 0.00 0.00 36 1012.2
20260507004545 74 267 14.0 25.0 0.00 0.00 0.00 36 1011.7
20260507004020 73 195 15.0 21.0 0.00 0.00 0.00 36 1011.7
20260507003040 73 245 17.0 29.0 0.00 0.00 0.00 35 1011.7
20260507001540 76 267 21.0 24.0 0.00 0.00 0.00 34 1011.7
20260507000541 76 265 21.0 27.0 0.00 0.00 0.00 33 1011.7
20260506235539 76 134 16.0 31.0 0.00 0.00 0.00 33 1011.7
20260506234536 76 242 21.0 31.0 0.00 0.00 0.00 34 1011.7
20260506233534 77 264 21.0 25.0 0.00 0.00 0.00 34 1012.2
20260506233014 74 285 17.0 33.0 0.00 0.00 0.00 37 1011.4
20260506231532 76 249 16.0 25.0 0.00 0.00 0.00 36 1012.2
20260506230531 75 267 12.0 21.0 0.00 0.00 0.00 39 1012.2
20260506225530 73 314 3.0 10.0 0.00 0.00 0.00 38 1011.7
20260506224528 74 106 2.0 11.0 0.00 0.00 0.00 35 1012.2
20260506223526 76 223 0.0 6.0 0.00 0.00 0.00 36 1012.2
20260506222958 75 59 3.0 13.0 0.00 0.00 0.00 36 1012.2
20260506221524 74 89 5.0 8.0 0.00 0.00 0.00 37 1012.5
20260506220523 70 157 2.0 10.0 0.00 0.00 0.00 40 1012.8
20260506215522 70 146 4.0 9.0 0.00 0.00 0.00 40 1012.8
20260506214519 70 211 6.0 11.0 0.00 0.00 0.00 40 1013.3
20260506214004 72 247 7.0 10.0 0.00 0.00 0.00 40 1013.3